Location: Unspecified
(0.0000°N, 0.0000°E)
Time: 13:09:09
(UTC+00:00)

SL-12 DEB - Pass Details

Date: 03 May 2025
Orbit: 905 x 18020 km, 65.1° (Epoch: 09 July)

Event Time Altitude Azimuth Distance (km) Brightness Sun altitude
Rises 18:03:38 0° 341° (NNW) 21,333 ? -1.6°
Reaches altitude 10° 18:35:02 10° 347° (NNW) 22,052 ? -9.2°
Maximum altitude 21:01:40 86° 259° (W) 7,926 ? -44.0°
Enters shadow 21:17:50 45° 171° (S) 5,826 ? -47.7°
